This demonstration page uses our WeatherBlox Daily Observations layout. Learn more.

36.17497, -115.13722

Hourly Observations for July 27, 2015

Temp ( °F °C ) Dew Point ( °F °C ) Humidity (%) Winds ( mph kmh ) Pressure ( in mb ) Visibility ( mi km ) Precip ( " mm )
12:53 am 00:53 Clear 86 30 37 3 18 18 S 10 17 29.62 1003 10 16.09344 0 0
1:53 am 01:53 Clear 84 29 37 3 19 19 S 10 17 29.59 1002 10 16.09344 0 0
2:53 am 02:53 Clear 84 29 41 5 22 22 S 10 17 29.59 1002 10 16.09344 0 0
3:53 am 03:53 Clear 82 28 41 5 23 23 ESE 7 11 29.59 1002 10 16.09344 0 0
4:43 am 04:43 Clear 82 28 41 5 23 23 S 16 26 29.59 1002 10 16.09344 0 0
4:53 am 04:53 Clear 81 27 41 5 24 24 S 16 26 29.59 1002 10 16.09344 0 0
5:53 am 05:53 Sunny 79 26 39 4 24 24 SE 6 9 29.65 1004 10 16.09344 0 0
6:53 am 06:53 Sunny 81 27 39 4 23 23 NNW 6 9 29.65 1004 10 16.09344 0 0
7:53 am 07:53 Sunny 82 28 39 4 21 21 N 15 24 29.68 1005 10 16.09344 0 0
8:53 am 08:53 Sunny 88 31 37 3 17 17 NNW 22 35 29.71 1006 10 16.09344 0 0
9:53 am 09:53 Sunny 91 33 36 2 14 14 NNW 18 30 29.68 1005 10 16.09344 0 0
10:53 am 10:53 Sunny 93 34 36 2 13 13 Calm 29.68 1005 10 16.09344 0 0
11:53 am 11:53 Sunny 93 34 34 1 12 12 N 5 7 29.68 1005 10 16.09344 0 0
12:53 pm 12:53 Sunny 97 36 36 2 12 12 N 7 11 29.62 1003 10 16.09344 0 0
1:53 pm 13:53 Sunny 97 36 30 -1 9 9 SSE 8 13 29.62 1003 10 16.09344 0 0
2:53 pm 14:53 Sunny 97 36 32 0 10 10 SSW 7 11 29.59 1002 10 16.09344 0 0
3:53 pm 15:53 Sunny 99 37 34 1 10 10 N 7 11 29.59 1002 10 16.09344 0 0
4:53 pm 16:53 Sunny 100 38 27 -3 7 7 S 6 9 29.56 1001 10 16.09344 0 0
5:53 pm 17:53 Sunny 100 38 25 -4 7 7 SSE 10 17 29.56 1001 10 16.09344 0 0
6:53 pm 18:53 Sunny 99 37 25 -4 7 7 SSW 5 7 29.56 1001 10 16.09344 0 0
7:53 pm 19:53 Clear 97 36 30 -1 9 9 Calm 29.56 1001 10 16.09344 0 0
8:53 pm 20:53 Clear 93 34 30 -1 11 11 E 6 9 29.59 1002 10 16.09344 0 0
9:53 pm 21:53 Clear 91 33 34 1 13 13 N 8 13 29.62 1003 10 16.09344 0 0
10:53 pm 22:53 Clear 90 32 34 1 14 14 NNE 8 13 29.65 1004 10 16.09344 0 0
11:53 pm 23:53 Clear 86 30 36 2 17 17 NW 7 11 29.68 1005 10 16.09344 0 0

Powered by AerisWeather